Theta_e
335 331 330 330 328 326 325 328 334 337 334 331 331 327 333 339 330 318 316 316 321 329 331 330 334 337 338 339 339 339 339 339 338 337 338 339 338 340 343 342 340 339 337 337 338 337 339 339 339 340 340 339 338 339 338 337 337 337 338 339 341 342 343 343 343 342 342 342 341 341 341 341 341 341 341 341 338 336 337 339 337 336 336 338 338
328 326 324 322 319 319 319 323 334 337 331 325 319 319 332 335 324 314 314 317 324 330 331 334 337 338 339 340 339 339 339 340 339 339 340 340 340 341 343 342 341 339 336 336 337 337 338 338 338 338 338 337 337 337 338 337 336 337 339 340 342 343 343 343 343 343 343 342 342 341 341 341 341 341 342 342 340 338 336 337 337 335 336 338 339
325 322 320 318 315 316 322 327 333 332 327 318 313 323 332 330 323 317 317 324 329 333 335 337 338 338 339 338 337 339 341 341 340 340 341 342 342 343 342 341 341 340 337 337 337 337 337 336 336 335 335 334 333 335 337 337 337 339 341 343 344 345 344 343 343 343 343 343 342 343 342 341 342 342 342 342 341 340 338 336 336 336 337 338 339
321 319 319 323 323 322 330 334 329 330 332 321 316 331 333 327 326 320 318 330 333 334 336 337 338 339 337 338 340 342 343 342 342 343 343 343 343 343 341 340 341 341 340 340 340 340 338 338 338 338 337 337 337 338 340 340 340 341 342 344 344 345 345 344 344 344 344 343 343 344 343 342 342 342 342 342 342 341 340 336 336 337 338 338 339
320 320 319 330 335 331 336 336 325 330 337 324 319 333 331 325 326 319 319 331 333 334 336 337 338 338 337 340 343 343 344 343 343 342 343 343 343 342 340 340 341 341 342 341 342 342 341 340 340 340 339 340 340 340 341 341 341 342 341 342 343 344 345 345 345 345 345 343 343 344 343 343 343 343 344 342 342 342 342 338 337 338 338 338 338
321 320 320 332 338 335 335 330 325 334 334 320 322 331 326 321 321 315 319 330 333 334 337 337 337 338 338 341 343 344 344 344 343 343 343 343 343 343 341 342 342 341 342 341 342 342 340 340 340 340 340 340 340 340 341 342 342 343 342 342 342 343 344 344 344 345 344 344 344 345 344 344 343 343 344 343 343 344 343 339 338 338 338 338 338
322 319 320 330 336 337 335 325 327 332 324 321 328 329 322 316 315 312 317 328 333 335 336 336 337 338 339 341 343 343 343 343 343 344 344 343 343 343 343 342 341 341 342 342 342 341 339 340 341 341 341 340 341 342 342 343 344 344 344 344 343 343 344 344 345 344 344 344 344 345 344 345 345 344 344 343 343 344 343 340 339 340 339 338 339
321 315 318 328 330 335 333 325 330 325 315 324 331 328 319 312 312 311 315 325 333 333 334 336 337 337 338 340 341 341 341 342 342 343 343 343 342 342 342 342 340 341 343 341 340 340 340 341 342 342 342 341 342 343 343 343 343 344 344 344 344 344 344 344 345 344 344 344 344 345 345 345 346 345 344 343 343 344 343 341 340 340 339 339 339
320 312 317 329 331 331 326 324 330 321 316 327 329 327 318 308 313 311 313 325 331 332 333 336 337 337 338 338 339 339 339 339 339 341 341 341 341 341 342 341 340 340 342 342 340 339 340 341 341 342 342 343 343 343 342 342 342 343 342 343 344 344 344 344 345 345 345 345 345 345 345 345 346 345 344 343 343 343 343 342 341 340 340 339 340
318 310 312 326 332 330 321 323 330 320 318 327 322 320 314 309 314 313 319 329 331 331 331 333 336 337 337 336 337 337 338 338 336 337 339 339 339 339 341 340 341 340 341 343 341 338 339 341 341 341 342 342 343 342 342 342 341 342 342 342 343 343 343 344 345 346 347 347 347 347 347 346 345 345 345 344 344 343 343 343 342 340 340 339 340
315 310 308 318 328 326 315 321 332 323 320 325 315 309 311 312 314 316 325 330 331 331 326 329 336 337 335 334 337 336 335 336 335 335 335 335 337 338 339 339 340 341 340 342 341 339 340 340 340 341 341 341 342 341 341 342 341 342 342 343 343 343 345 346 346 347 347 347 348 348 349 346 346 345 345 345 344 343 343 343 342 340 340 340 340
310 309 310 315 325 327 318 318 326 322 320 326 319 310 312 315 318 323 329 330 329 325 321 328 335 336 336 334 335 336 334 334 335 336 334 334 335 335 336 336 337 338 340 341 340 339 340 340 340 340 339 341 341 341 341 341 341 342 342 343 343 343 346 348 347 347 347 347 347 349 349 347 346 345 345 345 344 344 344 343 343 341 340 340 340
310 312 313 314 322 327 327 319 316 317 321 327 327 317 313 318 323 328 330 331 328 321 322 333 335 335 337 335 334 335 334 333 334 335 333 333 333 330 331 330 329 332 337 340 339 338 338 338 339 338 338 340 339 339 341 341 340 340 340 342 343 342 345 347 347 346 346 346 347 349 349 347 346 346 346 345 343 344 344 342 342 341 341 341 340
312 318 314 310 317 325 327 318 310 318 323 326 326 319 315 320 326 330 330 331 330 324 322 327 329 331 333 332 334 336 336 334 332 331 332 332 331 328 325 320 323 330 333 338 339 338 336 336 336 336 337 338 338 339 340 339 337 336 336 339 342 343 344 346 346 346 345 346 347 349 349 347 346 346 346 344 344 344 344 342 341 341 342 342 340
313 320 314 306 312 318 319 314 313 322 324 324 325 320 318 321 325 329 331 330 331 329 323 317 316 323 331 333 334 336 336 334 329 328 329 330 328 327 324 318 324 333 333 333 335 336 337 336 336 336 336 337 338 338 339 337 335 333 333 336 341 344 345 346 346 345 344 346 348 349 347 346 346 346 345 344 344 344 344 342 342 341 341 342 341
310 316 312 305 308 313 317 316 318 323 323 324 325 321 320 323 324 325 327 329 330 331 328 322 316 319 326 331 334 334 331 328 327 326 327 328 325 325 327 321 324 335 335 330 329 332 336 336 335 336 336 337 337 337 338 337 335 333 331 334 339 344 344 345 346 345 345 346 347 347 347 347 346 345 344 344 344 344 344 343 342 342 342 343 342
307 309 308 306 307 314 321 322 321 322 322 323 324 323 320 322 325 325 324 326 330 329 328 327 324 321 321 324 328 329 325 322 323 324 325 328 325 325 328 324 326 335 335 328 325 328 334 335 335 335 336 337 336 336 337 337 336 334 331 331 337 342 344 344 344 344 345 346 346 346 345 345 345 344 344 343 342 343 343 343 341 342 343 343 343
306 306 305 306 309 316 323 323 321 322 322 322 323 324 322 320 323 325 323 324 328 328 327 328 327 326 326 326 326 325 324 322 320 322 325 327 326 326 329 326 327 333 332 329 326 327 332 333 333 336 336 336 336 335 336 335 334 334 332 330 332 337 341 343 344 344 344 345 346 345 345 344 343 344 345 343 343 343 343 343 341 342 343 343 342
305 306 306 306 310 316 322 323 323 322 322 321 320 321 319 319 321 323 322 321 322 325 327 327 326 325 327 328 328 326 327 327 324 323 326 327 325 328 329 325 327 331 331 330 326 325 331 332 333 335 336 336 335 335 335 334 332 332 331 330 330 332 336 339 341 343 344 344 345 345 345 344 344 344 344 344 344 343 343 343 342 342 343 342 341
306 308 311 314 315 316 318 320 323 324 323 322 321 319 316 316 318 321 323 320 318 321 324 325 324 325 325 325 327 327 326 328 326 324 327 328 326 327 328 324 325 329 330 329 325 324 329 332 333 334 335 335 335 334 334 333 330 330 329 329 329 329 330 332 335 339 341 344 344 344 345 345 344 344 345 344 343 343 343 344 344 344 343 343 342
312 314 319 322 323 321 321 320 321 322 323 323 322 321 320 318 315 316 322 322 319 319 322 323 324 324 324 322 323 324 324 327 326 324 326 328 326 327 328 324 324 328 330 328 325 324 326 329 331 332 333 334 333 332 332 332 330 328 328 328 329 328 327 328 330 333 337 340 342 343 344 345 344 345 345 345 344 343 343 344 344 343 343 343 344
319 321 322 323 323 324 323 322 321 320 322 323 323 322 322 322 318 315 319 322 320 320 320 322 323 323 323 322 322 322 323 325 324 323 326 326 325 327 327 325 325 328 329 327 326 326 326 326 327 329 330 330 331 330 329 331 331 330 328 327 328 328 326 326 327 328 331 335 338 340 341 342 343 344 345 345 344 344 344 344 343 342 343 343 343
323 323 322 321 323 325 324 323 321 319 318 319 322 323 322 323 321 318 320 322 322 320 318 319 320 320 322 322 321 319 321 323 322 323 325 324 324 326 326 324 325 327 326 325 327 329 328 326 327 327 326 327 329 329 327 329 330 329 329 328 327 327 326 326 325 325 327 328 333 337 338 339 340 341 343 344 344 344 344 344 344 342 342 342 343
323 322 322 322 322 322 323 322 318 314 313 313 316 320 322 322 322 321 320 322 322 320 319 317 318 318 318 320 320 317 317 320 320 322 323 322 324 325 324 323 324 326 325 326 330 330 327 326 327 326 326 325 325 326 327 327 327 327 327 326 326 326 325 325 325 325 325 325 327 332 336 337 338 338 340 342 344 344 344 344 344 344 343 342 342
323 323 324 324 322 320 320 317 314 315 317 317 315 318 321 322 322 321 320 321 321 320 319 318 318 318 316 317 319 315 314 317 318 321 322 321 323 324 323 323 324 325 325 326 328 329 327 326 327 327 326 325 323 324 327 327 326 326 325 324 324 323 323 324 323 323 324 324 325 326 330 334 336 337 338 339 342 344 344 344 344 345 345 343 343
324 323 323 323 320 319 317 313 312 318 323 324 319 317 320 322 321 320 319 320 320 319 319 318 319 319 315 315 316 314 314 316 317 319 321 321 322 323 322 322 323 324 325 325 325 328 328 327 327 327 325 324 322 323 326 326 325 326 326 325 321 319 321 322 320 321 321 322 323 324 325 328 332 335 336 337 338 341 344 344 345 346 346 345 344
319 318 321 321 319 317 315 311 312 318 321 322 318 313 316 319 320 321 320 320 320 320 320 318 319 319 316 314 315 315 317 317 316 317 319 322 323 322 321 321 322 323 324 325 325 326 326 326 326 326 324 323 323 323 323 324 325 325 325 324 318 317 322 321 316 316 316 317 320 322 323 324 326 331 334 335 336 338 341 343 345 346 346 346 345
315 319 322 323 324 322 319 316 317 319 320 319 318 317 316 316 318 321 322 322 321 320 321 320 319 319 317 315 315 316 318 318 317 318 319 320 322 321 321 320 322 323 324 325 325 326 326 325 325 325 323 323 323 322 322 322 324 324 323 322 317 318 323 322 318 317 316 315 316 318 321 322 323 325 329 333 334 335 338 340 344 346 345 346 345
320 324 323 321 322 322 319 318 319 318 319 321 321 321 320 318 318 319 321 322 321 321 321 321 320 320 318 316 315 316 319 319 318 320 319 318 321 322 320 319 322 324 324 323 324 325 325 324 323 323 322 321 321 321 321 322 322 323 322 320 319 322 324 323 323 323 322 320 318 316 318 321 322 322 324 328 332 334 335 337 340 344 346 346 346
324 321 318 317 318 317 317 319 320 317 317 320 322 321 320 321 319 318 321 322 321 321 321 321 321 320 319 318 316 315 319 320 319 320 320 318 320 321 318 319 322 323 322 321 321 322 322 322 321 320 320 320 320 320 321 320 321 322 321 320 322 324 324 324 325 326 326 325 321 317 317 318 320 321 321 324 328 331 333 334 336 340 344 345 346
322 321 320 320 320 320 320 321 321 320 319 318 319 319 319 320 320 318 320 321 321 320 320 321 321 320 319 320 318 315 318 320 319 320 321 319 320 321 318 319 322 322 320 319 319 320 320 320 320 319 319 319 319 319 320 320 320 321 320 321 322 323 323 324 325 326 325 324 321 317 316 316 317 319 319 321 324 327 330 332 334 337 342 344 345
322 324 324 323 322 322 321 321 321 321 322 320 319 319 320 321 321 320 319 320 321 321 320 320 321 320 320 320 319 316 317 320 319 320 321 318 318 320 318 318 320 321 319 318 318 319 319 320 320 319 320 319 318 319 320 320 320 319 319 321 322 322 323 325 325 325 325 324 322 320 316 314 315 317 318 319 322 325 328 330 332 335 338 343 345
324 324 322 322 322 320 320 321 320 320 322 323 321 321 321 321 321 321 320 320 321 320 320 320 320 320 320 320 318 316 316 319 320 319 320 319 317 318 317 317 318 319 318 318 318 318 318 319 319 319 319 319 318 319 319 319 319 318 319 321 321 321 323 325 324 324 325 326 326 325 322 318 316 318 319 320 323 325 326 328 331 333 336 339 343
321 320 320 321 321 321 321 321 321 321 322 322 320 320 321 320 320 320 320 320 320 320 320 320 319 319 320 319 318 315 314 318 320 318 319 319 317 317 317 317 319 319 319 318 318 318 318 318 318 318 318 318 318 318 318 318 319 318 319 320 320 321 323 324 322 322 325 327 327 327 327 324 322 323 324 324 325 327 327 328 330 332 334 337 341
320 322 323 322 321 320 320 320 321 321 322 322 321 321 321 320 320 320 319 319 319 319 319 320 319 318 319 319 317 313 312 317 319 317 319 321 318 317 318 318 319 318 318 318 318 317 317 318 318 318 318 318 317 318 318 318 318 318 319 319 319 319 321 323 322 321 325 327 328 328 329 326 325 327 328 328 329 331 331 331 330 331 333 335 339
322 323 322 320 319 320 321 321 321 321 321 321 321 321 320 320 320 320 320 320 319 318 319 320 319 318 318 320 318 314 310 313 317 317 318 321 320 319 319 319 319 319 318 317 317 317 317 318 318 317 317 317 317 317 317 317 317 317 318 318 318 318 319 321 321 322 325 327 327 328 328 327 327 329 330 331 332 333 334 333 332 332 332 333 337
322 321 321 320 321 322 323 322 322 322 322 321 320 320 320 320 320 320 320 320 319 318 318 319 319 318 318 319 319 316 309 308 314 316 317 320 321 321 320 320 319 318 317 317 317 317 317 317 317 317 317 317 317 317 317 317 316 317 317 317 317 317 318 319 320 322 325 326 327 328 328 328 329 330 331 332 333 333 335 335 333 332 333 334 335
321 320 321 323 323 323 322 322 322 323 323 322 321 322 322 322 322 321 321 321 320 319 318 318 319 318 318 318 317 315 309 306 309 311 313 319 321 320 320 320 319 318 317 317 316 316 318 317 317 317 317 317 317 317 317 317 316 317 317 316 316 316 317 318 319 322 324 326 327 327 327 328 329 330 331 332 333 333 335 334 333 332 333 333 335
321 321 321 322 323 322 321 322 323 322 322 322 322 323 322 323 324 323 322 322 321 320 317 317 319 319 318 319 317 314 311 307 306 305 307 315 320 318 317 318 316 314 314 315 316 316 317 317 316 317 317 316 317 317 316 316 316 317 316 315 315 316 317 317 318 321 323 325 326 325 325 327 328 328 330 331 331 333 334 335 333 331 332 333 334
322 322 321 321 322 321 321 322 323 322 322 322 323 323 322 323 323 322 323 323 323 321 318 317 319 319 318 319 318 316 313 310 307 306 304 307 313 313 312 313 313 309 307 311 315 317 317 317 316 316 316 316 316 316 314 314 316 316 315 315 316 316 317 317 317 320 322 323 323 323 324 326 326 326 328 329 331 332 333 335 333 331 331 331 333
322 321 321 321 321 323 322 322 323 324 324 324 324 322 322 322 321 320 321 323 322 321 320 319 318 319 319 320 318 317 315 312 310 310 308 307 310 312 311 314 315 312 308 310 314 315 315 316 316 316 316 316 315 314 313 314 315 314 313 315 316 316 316 315 315 318 320 321 323 323 323 325 325 326 328 329 330 331 332 333 333 331 330 330 331
321 322 322 322 322 323 323 322 323 324 324 325 324 322 322 320 318 318 320 321 322 322 322 321 318 319 320 319 319 318 317 314 312 311 312 312 315 316 315 315 316 315 313 313 313 313 313 313 314 315 316 315 314 313 313 313 312 310 311 314 316 315 315 314 314 316 319 321 323 323 323 323 324 326 328 328 329 329 330 332 332 331 329 329 329
322 322 322 323 323 323 324 324 325 325 324 324 323 323 322 320 318 318 318 320 322 322 323 321 318 320 320 317 319 319 317 316 314 312 313 315 317 319 317 317 317 316 315 314 314 314 313 313 313 314 315 314 314 314 313 313 312 308 309 313 314 315 315 316 316 316 318 322 323 323 323 323 324 326 327 327 327 328 329 331 332 332 330 329 328
322 322 322 323 324 325 325 325 325 326 325 324 323 323 322 319 318 318 316 318 321 322 323 322 319 320 320 316 317 319 317 317 315 313 313 314 316 318 317 317 318 317 316 315 315 315 314 314 314 314 314 314 314 315 314 314 312 307 305 309 313 315 315 317 317 316 318 322 323 323 323 322 323 325 326 326 326 327 329 330 331 332 331 329 328
322 323 323 324 325 324 323 322 323 325 325 323 323 323 320 317 317 317 316 318 321 321 322 323 321 321 319 315 316 318 318 318 315 313 314 313 313 315 317 317 317 318 318 316 315 316 315 315 315 315 315 314 314 315 314 314 313 309 305 308 314 316 315 316 316 316 319 322 322 323 323 321 323 325 326 326 325 325 327 328 330 332 331 330 329
322 323 324 325 325 324 322 320 321 324 325 323 323 323 321 317 317 317 315 318 322 323 323 323 322 322 319 316 317 320 320 318 317 316 317 314 312 313 315 315 315 317 318 317 316 316 316 315 315 315 315 315 315 315 314 314 315 313 309 310 315 316 315 315 316 317 318 321 322 323 322 321 322 324 324 325 325 324 326 328 330 331 331 330 329
322 323 323 325 325 325 324 323 321 324 326 325 323 322 321 318 318 317 315 318 323 324 322 322 322 322 320 317 317 319 319 319 318 319 318 315 312 313 314 316 316 317 317 317 317 317 316 315 315 315 315 315 315 315 314 314 315 315 312 311 314 316 316 316 316 317 318 320 322 322 322 320 321 322 323 324 324 324 325 327 329 330 331 331 330
322 322 323 324 325 325 325 324 323 323 325 325 323 322 321 319 317 317 316 319 324 324 321 322 322 321 321 320 319 317 318 320 321 320 317 314 313 313 313 315 317 317 317 317 318 318 316 316 316 315 315 316 317 316 315 314 315 315 314 313 313 315 315 316 316 317 317 318 320 321 321 320 320 321 322 323 323 323 324 326 328 329 330 331 331
322 323 324 324 324 324 325 325 325 325 324 324 323 322 321 319 317 316 315 318 324 324 321 322 322 321 321 322 320 318 315 316 318 318 315 313 313 314 313 314 315 316 317 318 318 318 319 317 315 315 316 316 317 317 316 315 315 315 315 314 314 315 315 315 316 316 316 317 320 321 320 320 319 320 322 323 322 323 324 325 326 328 328 329 331
323 323 324 324 324 324 324 325 325 325 325 324 323 322 321 319 317 316 314 316 323 325 323 322 322 322 321 321 320 319 317 316 317 318 316 314 313 314 314 314 314 314 316 318 319 320 319 316 314 316 317 316 316 316 316 315 315 315 315 314 315 315 314 315 316 316 316 318 320 321 320 319 319 319 321 322 322 322 323 324 325 327 327 328 330
323 323 323 324 324 324 324 325 325 325 324 324 323 323 321 318 316 315 314 315 320 324 324 322 322 322 321 320 321 321 320 319 320 320 318 315 314 315 314 314 314 314 315 316 317 317 316 314 314 317 318 317 315 315 316 316 315 315 315 314 315 315 314 314 315 316 316 318 319 319 319 319 318 318 320 322 322 321 322 322 324 326 327 327 329
Wind_Speed
2 3 4 5 5 7 7 5 6 7 7 6 6 6 6 6 10 9 8 7 5 7 8 6 8 9 8 9 9 8 7 8 7 4 5 7 8 8 7 7 8 8 8 8 9 8 8 8 8 8 8 9 11 13 14 15 15 15 16 17 19 20 20 20 20 23 24 26 29 29 28 26 26 27 29 30 28 25 24 24 23 20 19 19 19
4 5 5 6 6 7 7 6 5 6 8 8 7 6 6 8 11 9 8 7 7 8 8 7 10 10 8 7 8 6 5 5 4 2 3 6 7 7 8 8 8 6 5 7 8 8 8 9 9 10 11 13 14 15 16 17 17 16 18 18 18 20 20 20 20 22 22 24 26 29 30 28 27 27 29 30 30 28 26 25 24 23 21 20 20
6 6 6 6 7 7 7 7 5 6 9 8 7 8 8 9 10 10 8 8 9 11 9 8 10 7 8 10 8 6 4 3 3 2 4 7 7 6 7 8 6 5 4 5 6 7 9 9 11 12 14 15 14 15 14 16 17 17 19 18 18 19 20 19 20 21 22 23 23 26 30 30 28 27 28 29 30 30 29 27 25 24 23 21 22
7 7 7 8 10 8 7 6 5 7 10 9 7 9 10 9 9 10 7 8 11 10 9 9 9 7 10 9 4 3 5 3 3 3 4 7 7 5 5 6 5 5 4 4 4 6 7 7 8 9 11 12 12 13 13 14 16 17 18 18 18 19 19 20 21 22 23 23 23 24 28 31 31 29 28 29 30 30 31 29 26 25 24 23 22
9 8 8 9 10 9 6 6 6 7 7 7 7 8 9 8 8 8 4 9 10 7 8 9 8 9 8 7 4 5 5 3 4 4 3 4 5 6 5 5 5 4 5 5 6 7 6 5 7 8 8 9 9 11 12 13 14 16 17 18 18 18 19 20 21 22 23 23 24 23 25 29 32 31 29 29 29 30 31 30 28 26 25 24 23
10 10 9 8 7 7 5 6 6 5 6 5 7 7 7 6 6 5 4 7 6 6 9 9 10 10 8 6 6 6 4 4 6 6 6 6 4 6 6 5 5 5 6 5 6 7 6 8 9 8 8 8 8 9 9 10 11 13 15 17 18 18 19 20 21 23 24 25 25 25 24 27 31 32 32 30 29 30 31 31 30 28 27 26 24
11 11 9 7 6 6 7 7 6 5 6 6 9 8 7 6 6 4 5 5 7 10 10 8 9 10 9 8 8 6 5 6 8 8 8 7 6 7 7 7 8 7 7 7 8 7 7 9 10 9 9 9 9 10 9 9 10 11 13 15 16 17 19 20 22 23 25 25 26 27 26 27 30 33 34 31 29 30 31 31 31 29 28 27 25
12 11 9 7 5 4 8 8 8 8 6 8 10 10 9 7 6 5 4 6 9 11 8 8 7 7 9 9 7 7 7 6 6 6 7 7 7 8 8 9 10 9 7 8 8 8 8 9 10 10 11 10 10 11 10 11 12 12 13 13 15 17 19 21 22 24 26 27 27 28 29 29 29 32 34 31 30 31 30 31 31 30 29 27 26
13 12 9 8 7 5 6 7 9 9 7 8 7 9 10 7 6 6 4 7 11 10 8 8 5 4 7 7 7 7 7 7 7 7 7 8 7 8 8 8 9 10 8 8 9 9 8 9 9 9 10 10 10 11 12 12 13 14 14 13 15 16 18 20 21 23 26 28 29 30 30 31 30 31 33 32 32 32 31 31 32 31 29 28 26
15 13 7 6 6 6 6 7 10 10 8 9 7 8 9 7 7 6 9 12 11 9 10 7 3 5 5 3 6 7 7 8 9 9 8 8 8 8 8 7 8 9 9 8 9 8 7 8 9 8 9 9 10 11 12 13 14 15 16 15 16 16 16 17 18 20 24 27 30 31 32 32 31 31 33 33 32 32 32 31 32 31 30 28 27
16 14 7 4 4 7 6 6 8 10 8 10 11 9 8 8 8 8 13 14 8 9 9 3 2 3 3 2 4 6 7 7 10 12 10 10 10 8 8 8 7 8 8 8 8 8 8 8 8 8 8 9 10 12 12 13 14 15 16 17 18 17 14 13 14 17 20 25 28 31 33 33 32 32 32 33 32 32 32 32 32 31 30 29 27
17 13 7 4 5 8 8 5 5 7 8 12 15 15 11 9 9 10 12 12 10 11 6 3 3 1 3 3 2 3 6 6 6 9 9 9 9 7 8 8 7 8 7 7 8 9 9 10 10 9 10 10 11 12 11 12 14 16 17 18 18 16 13 12 13 14 16 21 25 28 32 33 32 31 32 32 32 32 32 32 32 31 30 29 27
16 12 7 4 5 7 9 7 5 7 11 12 14 16 13 10 10 10 10 9 12 13 6 3 4 3 1 2 1 1 3 5 5 5 8 8 8 8 9 9 8 8 7 8 9 9 9 11 12 12 12 12 11 11 11 12 14 16 18 18 19 18 13 11 12 11 11 14 18 24 29 32 32 30 31 32 31 31 30 31 31 31 30 29 28
14 11 8 5 3 6 8 7 8 11 13 13 12 15 14 10 10 11 10 8 10 16 9 2 3 5 1 2 1 1 2 2 4 6 11 11 12 13 13 12 9 8 8 7 8 9 8 10 11 12 12 12 12 11 11 13 15 17 18 19 20 19 15 10 10 11 10 8 7 18 25 28 29 28 30 30 30 29 29 30 31 31 31 29 29
10 7 7 6 3 7 10 8 11 13 13 14 12 13 14 11 9 10 10 11 9 16 15 10 6 4 2 3 4 1 2 1 3 4 9 12 13 16 17 16 9 7 9 6 6 8 9 10 10 12 12 12 13 12 12 14 16 18 19 20 19 19 17 11 8 10 10 8 3 11 18 23 25 26 28 28 28 28 27 29 30 30 31 30 30
7 4 5 6 6 10 13 11 12 13 11 14 12 11 12 11 10 11 8 11 12 12 15 15 11 5 5 4 6 7 8 8 6 3 6 9 11 13 17 17 11 8 9 7 7 8 8 10 11 12 13 12 12 11 11 14 15 17 19 20 20 18 17 13 9 8 8 8 7 8 11 16 20 21 24 25 26 27 27 28 28 30 31 31 30
6 5 6 7 8 13 14 12 13 14 12 13 12 11 12 10 11 13 9 9 12 12 11 14 14 11 11 8 7 9 10 13 10 4 5 7 9 11 14 16 12 8 9 10 9 9 7 9 10 12 12 12 13 12 11 13 14 17 19 20 20 18 17 16 12 8 7 6 6 7 6 10 14 16 18 21 23 25 26 27 28 30 32 31 30
6 6 7 7 9 14 15 12 12 13 11 10 11 10 10 10 11 13 11 8 9 11 11 11 12 11 11 12 11 10 10 14 12 8 8 6 7 10 11 13 11 7 11 11 10 9 8 8 10 11 12 12 13 13 12 13 14 15 17 18 19 18 17 18 16 12 7 6 5 4 4 7 11 13 16 19 21 23 24 25 27 29 31 30 29
8 7 9 10 11 13 14 13 12 12 11 10 10 10 9 9 11 12 12 8 6 9 11 11 11 11 10 9 10 10 10 11 11 11 12 9 9 8 7 11 8 6 9 10 11 11 9 8 8 9 12 12 13 13 12 13 14 15 15 16 17 17 17 17 17 15 11 8 6 2 2 5 9 12 14 18 20 21 22 23 25 28 29 28 27
9 9 12 13 14 13 12 12 12 11 12 12 12 12 11 10 9 11 12 12 8 9 11 11 11 12 10 8 9 8 6 7 9 9 10 12 11 8 9 11 7 6 8 9 12 13 11 10 8 8 10 12 13 13 13 14 14 14 14 14 15 16 17 17 16 15 13 12 9 5 2 4 8 12 15 17 18 20 21 22 23 25 26 25 26
11 12 13 13 12 12 12 11 10 11 11 11 12 13 14 13 10 10 12 13 11 10 11 11 12 13 11 9 11 8 6 8 9 7 8 11 10 10 13 11 7 6 6 8 13 13 12 12 10 9 8 9 12 13 15 17 16 15 15 13 13 14 15 15 15 14 12 11 10 7 4 3 8 13 16 17 19 20 21 22 22 23 23 24 25
10 11 10 10 11 10 10 10 9 8 9 9 10 11 12 12 12 11 13 14 13 12 12 11 11 12 10 10 11 9 8 11 10 8 9 9 9 11 13 11 11 9 5 8 13 11 11 13 12 11 10 10 12 14 14 15 16 16 15 14 12 11 12 13 13 13 12 11 9 7 5 4 5 9 13 16 19 20 21 22 22 23 24 24 24
7 8 7 8 10 10 9 9 8 7 6 7 9 10 10 10 12 12 13 14 15 14 13 12 11 10 9 9 10 9 8 10 11 10 10 10 10 12 12 10 11 10 7 7 8 8 12 15 14 15 15 13 12 13 13 13 16 17 15 15 13 10 10 11 11 12 12 11 10 8 7 6 5 6 9 12 16 19 22 23 24 25 25 26 26
7 7 7 7 8 8 6 6 6 7 9 7 6 9 9 8 10 12 12 13 13 13 14 14 14 12 9 9 10 10 8 9 10 9 9 9 9 12 12 10 12 12 8 5 4 7 13 14 14 16 17 15 13 12 12 14 18 20 18 17 16 14 12 10 10 11 11 10 10 9 8 8 8 7 7 9 12 16 20 23 25 26 27 28 28
8 8 9 8 8 8 6 6 5 7 11 11 7 8 9 9 10 10 10 13 12 12 13 13 14 14 10 10 10 10 8 9 9 8 8 7 8 11 11 10 14 14 8 5 4 6 11 13 14 16 18 20 19 12 10 15 20 21 21 19 17 17 15 12 11 11 11 10 10 10 9 9 10 9 9 9 10 13 17 21 24 26 27 29 29
9 9 9 5 6 8 7 6 7 8 10 9 8 7 8 8 12 10 10 12 12 11 12 12 13 13 12 11 11 10 9 9 8 7 7 7 9 12 12 12 13 11 9 11 9 8 11 14 14 16 17 20 20 12 9 14 18 18 19 20 19 17 15 14 13 12 12 11 10 10 10 10 10 10 10 10 10 12 15 19 21 24 26 28 30
8 7 6 4 7 9 9 9 9 9 9 7 8 11 11 9 12 11 9 11 12 11 11 12 12 12 13 12 11 10 9 10 10 8 6 6 8 10 12 14 14 11 12 13 10 10 12 14 14 15 16 18 19 15 13 13 15 16 17 21 22 17 14 16 15 13 12 12 11 10 10 11 11 10 10 10 10 10 13 17 20 22 24 27 30
4 6 7 7 8 8 8 9 10 9 8 8 11 14 14 12 12 12 11 11 12 12 12 12 12 12 13 12 10 9 9 10 12 10 9 7 7 8 10 12 13 13 16 15 13 13 13 13 16 15 14 16 17 16 15 12 13 17 19 22 21 17 15 18 17 14 12 11 11 10 10 11 11 11 10 10 10 10 11 14 17 21 23 26 30
9 7 5 7 9 8 7 10 9 9 8 8 10 11 12 14 14 12 12 13 12 12 12 12 12 13 13 12 11 9 9 10 10 10 11 10 9 7 10 9 9 11 14 15 15 16 14 14 16 15 13 15 15 14 15 15 15 17 20 20 18 17 17 19 17 16 15 13 12 11 10 10 11 12 12 10 10 11 11 11 13 18 22 23 27
8 6 6 8 9 7 9 12 12 11 9 8 8 8 8 10 12 11 12 13 13 13 13 12 13 13 13 13 12 10 9 9 9 7 10 9 9 7 10 6 5 7 9 11 13 14 15 15 16 16 15 16 16 14 16 17 16 17 18 18 17 17 17 17 16 16 17 17 15 12 11 10 10 11 13 12 11 11 12 12 11 14 20 23 25
8 7 8 9 12 12 12 12 11 11 10 9 9 10 10 9 8 11 13 13 13 14 14 12 12 13 13 14 14 11 10 10 9 7 8 9 7 7 10 6 6 6 5 8 11 13 14 15 17 16 15 17 16 14 16 17 15 17 17 16 17 16 16 16 16 16 17 18 16 14 12 11 10 10 12 13 12 12 13 13 12 11 17 23 25
9 8 6 5 7 7 9 7 6 6 7 9 8 8 8 8 7 11 15 14 12 12 13 12 12 14 14 14 14 12 10 10 8 7 8 9 6 8 10 7 7 6 8 12 13 12 13 13 16 16 15 18 16 14 16 16 16 18 17 16 16 14 15 17 15 15 17 18 18 16 14 12 11 10 11 12 13 13 14 14 14 12 13 21 25
9 7 8 8 7 6 7 6 5 6 6 6 6 6 8 8 7 9 13 14 11 10 12 12 12 14 14 13 14 13 9 10 9 6 7 9 8 8 8 8 8 8 13 15 12 12 14 12 13 14 14 17 16 15 16 15 18 20 17 15 15 13 16 18 15 13 15 17 17 17 16 13 11 10 10 11 13 14 14 14 14 14 12 16 22
8 7 8 9 8 8 7 6 6 6 6 6 6 8 9 8 7 7 8 10 9 8 9 10 11 14 13 12 13 14 10 8 8 7 8 10 7 6 7 8 9 9 10 12 11 13 15 13 13 13 14 15 15 15 16 14 16 19 17 16 15 13 16 19 16 12 12 14 15 15 16 14 12 11 10 11 12 14 15 15 15 15 14 12 18
9 9 9 8 8 8 6 6 6 5 5 5 7 8 8 7 7 6 7 8 8 7 6 7 10 13 14 12 12 15 12 8 7 8 9 10 7 7 9 8 9 10 9 12 14 14 15 16 15 14 14 15 14 15 17 14 13 16 18 18 17 14 15 18 17 13 10 12 12 12 15 16 13 12 11 12 13 14 16 16 16 15 14 13 13
9 9 9 9 7 8 8 7 6 5 5 4 5 5 6 7 7 6 7 8 9 8 8 9 11 12 13 11 13 18 16 8 6 6 7 9 7 6 8 9 9 10 9 12 14 12 14 16 14 13 14 15 15 16 19 19 18 17 17 17 19 17 15 17 17 13 10 12 12 13 17 17 14 12 12 13 13 13 15 17 18 17 15 13 11
10 9 9 8 9 10 7 5 4 4 5 5 5 4 3 5 6 6 7 7 8 9 9 9 11 12 11 11 14 20 19 10 5 3 2 7 8 7 7 8 9 8 8 12 12 10 13 15 14 15 14 15 16 16 17 21 21 19 18 17 18 18 17 18 18 14 11 12 13 14 17 17 14 13 13 13 13 12 13 15 18 18 17 14 11
9 10 10 9 9 8 5 3 2 4 4 4 3 3 2 4 4 4 5 6 7 7 6 7 10 11 10 10 14 18 20 14 8 4 2 2 5 8 8 6 6 6 7 10 9 9 13 14 14 16 15 14 16 16 18 19 19 20 22 21 19 18 18 20 18 14 12 12 13 14 15 15 14 14 14 14 14 13 11 11 15 18 17 16 13
10 7 5 4 5 5 4 3 2 0 1 2 3 2 2 4 3 2 1 3 6 7 6 7 10 11 9 11 15 17 19 18 11 6 5 3 2 4 9 8 8 9 9 7 7 11 15 13 12 15 15 15 16 18 19 18 18 20 23 24 22 19 19 20 18 14 13 13 14 12 11 12 14 14 13 13 14 15 12 10 13 16 17 17 16
10 6 3 4 4 3 2 3 1 2 3 3 4 1 2 3 5 5 1 2 6 7 6 7 9 9 8 10 14 16 17 18 13 9 8 5 3 5 8 11 13 13 10 6 6 11 13 10 12 15 15 15 17 19 20 18 20 22 23 23 22 20 21 21 16 12 13 14 14 12 10 11 15 16 14 13 14 15 14 11 13 16 16 17 17
7 6 5 4 5 4 2 3 3 2 1 3 4 4 4 5 8 8 2 1 2 3 3 6 8 8 7 10 14 16 16 18 17 14 12 8 9 11 11 13 17 16 14 13 12 11 9 8 12 14 14 15 16 19 20 19 20 24 22 21 21 20 21 20 14 11 13 15 14 12 10 11 16 18 15 14 14 14 15 13 13 15 17 17 18
6 6 6 6 5 5 3 3 4 4 4 6 8 6 6 9 10 8 4 1 0 2 4 6 6 6 8 12 14 15 16 19 19 17 13 12 15 19 17 16 17 14 14 18 19 16 11 10 11 12 14 16 17 18 19 19 22 24 22 21 21 21 22 21 15 11 13 16 16 13 12 13 15 17 17 16 15 14 15 15 12 14 17 19 19
7 6 6 7 6 5 4 4 3 2 6 9 8 7 8 10 9 7 6 2 1 3 6 6 5 5 8 10 11 13 16 17 17 16 14 12 13 14 13 14 17 17 14 15 19 20 16 13 13 12 13 15 17 19 20 21 25 25 22 21 20 19 20 22 21 16 15 17 18 18 17 15 13 15 17 18 18 15 15 15 13 13 16 19 20
7 6 7 7 7 6 7 7 3 1 3 6 7 8 8 8 7 6 6 3 1 1 2 4 6 6 8 8 6 10 14 14 14 14 12 10 9 6 6 8 13 18 15 13 17 19 14 14 17 17 15 16 18 21 21 23 26 26 23 19 17 16 17 19 22 22 18 18 18 19 21 17 12 12 14 18 20 18 15 16 15 13 15 18 20
7 7 7 6 7 8 8 7 5 3 5 8 8 7 7 7 6 6 6 5 2 3 2 4 5 6 9 7 2 4 11 12 13 14 13 13 12 8 6 4 6 12 14 14 15 14 10 14 19 18 16 16 17 19 21 21 23 26 23 17 13 16 19 19 21 22 20 18 16 17 20 18 13 12 13 16 20 21 19 18 16 15 15 16 18
8 7 7 6 6 7 7 6 5 4 5 8 9 9 7 7 7 6 7 5 3 4 4 4 6 9 10 7 1 2 9 12 13 14 14 15 15 11 7 4 5 9 12 14 13 9 8 16 20 18 14 12 14 17 18 19 21 24 24 17 13 17 20 20 21 21 19 17 14 16 19 18 15 14 14 15 18 21 20 18 17 16 16 16 17
8 7 6 7 7 7 7 6 4 4 7 11 12 10 8 7 7 7 7 5 4 6 3 2 8 13 11 6 5 6 8 11 13 15 14 15 15 12 9 5 5 8 9 12 12 9 12 17 20 16 12 10 12 15 16 17 18 22 23 18 14 16 20 21 21 20 16 15 15 17 19 19 17 15 14 14 16 19 18 17 17 17 17 16 16
8 7 6 6 7 7 7 6 5 6 8 11 10 8 7 7 7 8 7 5 6 7 2 1 9 14 10 6 7 7 6 7 11 13 13 13 14 13 11 9 8 6 5 10 12 12 15 19 18 14 11 10 13 15 15 16 17 19 21 20 16 17 20 21 22 19 17 17 18 17 18 19 18 15 14 14 16 16 16 16 16 17 19 18 17
9 8 7 4 5 6 6 7 7 6 6 9 10 7 7 8 8 8 7 5 6 8 4 3 9 13 9 6 11 12 9 7 8 10 11 13 14 14 13 13 11 6 4 9 13 13 17 22 20 13 10 11 13 15 16 16 15 15 18 22 21 19 19 21 21 21 19 18 17 16 18 21 20 16 14 15 14 14 15 16 17 19 21 20 18
9 9 8 6 6 7 8 8 8 7 7 10 11 9 7 8 8 8 7 6 6 8 6 5 9 12 10 9 11 12 10 9 10 11 12 14 14 14 15 15 14 11 8 9 13 16 20 23 20 14 11 12 13 14 16 15 13 12 16 21 21 18 18 20 20 21 21 18 16 18 22 24 22 17 16 16 15 13 13 16 19 20 21 21 21
10 10 9 8 7 8 8 7 7 8 10 10 11 9 8 8 8 9 8 7 7 9 8 7 8 11 11 12 13 13 12 11 13 13 14 15 15 15 15 16 17 16 13 11 15 19 21 22 20 14 11 11 12 14 16 14 11 12 16 18 16 15 17 19 18 18 20 19 17 20 23 24 23 19 17 18 19 16 13 15 17 18 20 22 21
Wind_Direction
314 333 337 333 336 338 349 358 357 345 335 341 326 336 17 342 322 338 343 338 355 355 337 347 16 13 1 352 340 330 328 328 330 336 324 292 277 283 288 300 305 293 278 271 273 277 281 283 288 292 289 287 287 288 288 287 285 283 282 277 272 268 264 259 255 254 252 248 246 244 242 239 239 237 233 232 232 231 232 232 231 229 230 232 232
5 1 354 347 352 351 354 9 13 341 330 339 341 4 16 338 338 351 355 6 18 8 8 26 26 15 351 311 291 294 290 298 322 358 324 284 267 275 282 295 302 288 265 264 270 276 285 288 290 292 289 287 287 285 285 285 284 282 283 280 273 270 269 264 259 259 257 253 247 244 242 238 236 236 234 233 231 230 230 231 231 231 229 230 232
13 12 7 2 6 7 10 16 9 336 339 349 360 22 10 342 348 355 1 22 26 15 11 14 14 352 295 289 288 298 314 313 308 276 287 284 278 289 295 301 305 293 277 270 278 284 286 287 287 286 286 286 285 283 282 281 282 281 281 279 274 272 270 266 260 259 258 257 253 246 242 238 235 234 234 232 230 229 229 230 230 231 229 227 230
21 18 15 15 9 19 25 6 4 2 354 355 15 25 356 340 353 348 1 38 27 5 353 3 356 304 293 316 330 346 360 350 313 294 299 303 309 330 323 327 336 322 319 322 337 330 306 300 302 299 296 295 292 289 286 283 283 284 283 281 279 276 272 268 263 260 258 257 255 249 243 239 235 232 232 231 230 228 228 229 228 228 226 225 228
23 15 23 31 11 20 30 339 5 29 350 342 27 24 340 338 355 342 16 47 25 357 5 8 332 311 321 332 5 35 17 357 341 335 347 343 347 359 344 342 359 4 5 4 15 4 342 344 342 332 328 324 320 314 307 301 294 290 287 284 282 278 273 269 264 260 258 255 253 249 242 238 235 232 232 230 229 228 227 228 226 225 224 224 228
18 11 28 51 22 12 360 334 16 26 316 339 34 11 328 337 348 344 30 45 39 22 15 360 326 332 343 339 11 35 27 25 27 22 22 18 28 29 11 8 10 24 34 22 20 13 6 15 6 354 355 356 355 348 336 321 307 298 292 287 282 276 272 269 266 262 259 255 252 248 243 237 233 231 232 230 228 227 225 225 225 224 223 225 228
12 13 29 58 47 10 341 350 18 341 323 24 25 345 321 340 341 353 28 66 67 32 8 351 337 344 352 5 24 31 34 48 46 37 31 21 32 42 27 28 26 29 40 32 19 13 27 27 10 5 9 10 11 5 355 338 323 312 303 296 288 279 274 270 267 264 261 257 252 248 243 239 233 228 229 230 229 227 224 222 224 224 224 226 227
10 14 25 40 52 17 346 1 4 340 4 40 16 339 327 341 350 360 32 82 54 23 5 356 348 346 357 11 20 22 24 44 57 45 39 31 31 37 27 30 31 27 36 38 24 13 25 24 5 3 6 5 10 6 360 350 338 330 321 313 303 290 281 275 271 267 262 258 253 248 243 239 234 228 226 227 228 227 223 222 223 223 223 224 225
9 9 24 29 23 360 354 14 359 349 25 31 6 341 334 343 5 11 44 64 35 10 353 348 355 355 357 3 1 17 17 13 43 53 43 32 30 37 26 25 28 23 25 29 25 15 18 21 6 360 356 355 1 1 358 352 346 344 337 327 316 303 291 283 278 271 263 258 252 246 241 237 233 228 223 221 224 224 221 220 221 222 222 222 222
7 5 22 41 21 350 356 30 5 352 20 16 349 337 343 357 17 40 55 44 25 359 340 336 19 4 346 13 359 6 17 11 23 35 36 23 23 31 19 21 27 23 21 19 20 11 11 22 11 355 348 350 352 351 353 352 351 351 345 335 329 322 308 292 282 273 263 256 250 242 236 232 230 226 220 218 221 221 217 216 217 220 221 220 220
7 4 11 48 36 355 356 53 18 353 13 18 7 3 13 23 33 63 56 39 13 340 336 335 70 3 335 46 21 4 9 3 6 16 23 12 14 20 9 15 19 19 21 14 13 6 5 17 11 355 345 352 355 351 355 357 357 358 353 344 339 335 327 313 296 281 268 258 249 240 232 226 225 223 219 215 217 219 215 214 216 219 221 218 217
7 4 12 44 48 16 7 37 25 5 27 28 17 17 29 38 51 67 52 36 0 346 5 42 61 38 306 334 355 7 6 1 10 17 16 6 8 8 0 2 0 11 21 12 8 7 5 5 5 360 352 2 10 2 2 6 5 5 1 353 350 347 342 337 322 301 285 268 249 237 227 220 218 219 216 213 214 216 214 213 215 217 219 216 215
9 6 10 34 61 47 19 8 28 42 46 39 17 11 25 43 58 63 57 41 356 356 32 57 37 47 280 272 295 13 23 26 36 1 346 358 359 352 352 347 347 4 14 12 9 4 5 3 2 3 360 6 13 11 12 12 10 8 4 359 360 358 349 344 338 324 311 287 252 231 221 213 213 214 212 211 213 214 212 212 214 215 215 215 215
13 7 2 11 62 74 36 18 58 56 48 54 27 4 19 45 63 61 64 65 2 353 6 345 360 10 12 134 28 174 187 10 42 1 352 6 356 346 350 351 352 3 7 16 11 1 6 8 5 6 7 9 9 17 24 17 11 9 8 5 5 7 360 348 349 345 343 336 254 218 210 206 207 209 208 208 212 214 213 211 211 212 213 214 216
13 6 4 17 59 82 56 48 72 59 44 57 41 2 15 38 58 55 59 79 37 357 1 5 355 340 7 33 348 360 182 291 68 26 3 9 350 340 348 357 9 13 5 7 6 7 10 7 5 7 13 14 11 20 25 20 15 10 12 11 10 14 9 355 354 0 6 23 98 187 193 198 202 203 202 205 209 212 212 211 211 213 215 215 215
15 11 24 44 77 83 63 51 62 58 44 53 44 2 14 37 49 43 46 84 67 16 10 18 16 6 15 359 339 17 30 8 6 338 355 6 345 338 347 358 19 25 1 348 355 14 19 7 2 4 12 14 11 18 22 20 17 12 14 17 16 18 16 4 355 1 14 41 93 145 172 188 195 197 200 204 206 208 210 210 211 215 218 217 217
31 44 57 68 86 83 66 48 48 52 45 52 52 14 12 38 48 40 36 71 69 40 26 27 26 24 21 12 4 22 18 4 356 331 3 10 344 345 350 356 14 17 349 343 355 11 17 14 6 1 10 15 9 11 16 15 13 13 14 16 18 20 19 16 10 3 3 25 75 115 153 183 190 196 205 208 208 210 212 212 211 215 218 217 218
55 66 77 83 88 81 71 57 46 50 45 49 59 34 21 39 45 42 38 58 74 53 40 34 32 36 35 23 11 13 7 5 9 360 4 21 4 356 350 353 8 5 344 341 354 4 4 13 15 5 5 12 12 12 17 14 9 11 13 13 17 19 20 23 24 23 14 3 31 100 146 187 196 201 209 210 211 213 215 217 217 218 219 217 218
65 75 81 80 81 79 76 70 57 50 45 44 50 38 33 46 51 50 42 40 64 57 45 39 37 38 44 39 17 6 3 5 10 3 354 358 11 8 351 352 357 349 339 335 347 357 355 3 21 16 4 3 8 11 15 16 12 9 10 11 15 18 20 23 26 29 31 23 12 24 180 201 207 214 217 214 215 217 219 222 222 221 220 220 221
61 75 76 68 63 63 69 76 72 60 44 38 39 34 35 42 53 64 53 38 40 54 51 43 45 37 26 38 34 14 10 10 5 8 356 344 353 3 356 355 351 337 332 335 347 350 348 353 7 18 9 4 6 5 4 9 15 12 8 9 13 18 21 21 23 25 29 32 28 12 310 238 226 230 229 224 223 224 226 227 224 224 224 224 227
48 63 69 66 58 50 51 58 70 76 64 48 37 28 30 32 38 60 60 46 40 50 52 44 49 43 18 18 31 22 24 19 2 7 6 348 346 348 350 353 355 342 308 321 342 343 348 352 353 1 5 5 5 4 2 360 3 7 5 5 9 15 20 22 24 24 22 24 24 20 1 285 244 241 240 236 231 228 231 232 229 229 229 228 230
41 56 65 72 72 58 48 48 52 73 88 87 68 40 31 31 34 53 61 51 43 45 50 50 51 47 30 21 24 21 23 15 4 9 7 355 349 345 346 342 340 344 312 322 339 342 355 1 357 354 351 358 360 2 10 2 351 350 350 353 1 8 14 19 23 24 20 16 9 5 360 325 270 256 250 245 241 236 235 235 232 231 230 229 229
61 66 68 70 77 70 53 45 45 60 83 108 102 68 43 36 33 42 57 52 42 38 40 46 51 43 36 38 23 13 25 14 5 13 5 356 355 346 343 332 327 341 342 336 340 346 1 8 5 354 346 352 352 353 8 2 345 340 334 337 344 349 1 7 13 19 16 12 6 355 349 335 311 285 264 252 248 244 240 239 237 233 231 232 232
80 68 67 60 67 77 70 49 44 60 58 57 97 85 59 55 43 34 50 59 45 37 32 31 39 32 28 54 32 359 17 21 4 8 5 360 2 349 340 332 333 342 340 326 338 4 9 6 0 356 353 356 352 349 1 350 339 339 331 325 328 329 336 346 352 3 4 3 1 351 344 339 331 316 290 268 254 246 243 242 241 238 235 234 234
89 85 87 71 56 58 55 46 49 67 57 30 31 76 69 67 66 43 49 64 53 42 34 24 34 28 19 55 40 357 12 28 5 6 9 6 9 355 341 335 339 345 358 12 12 19 14 3 357 357 358 359 355 356 7 344 335 344 340 331 330 328 325 327 331 340 346 347 351 348 339 334 332 330 321 298 275 257 246 241 239 239 238 235 234
142 134 126 102 68 62 48 52 62 74 75 37 12 61 79 74 73 57 46 58 55 49 38 26 34 28 18 46 40 6 17 25 8 9 10 11 14 359 347 346 343 344 3 16 27 38 21 12 7 359 357 359 356 2 21 352 337 344 340 329 335 339 330 325 323 324 328 329 331 337 335 330 326 327 329 323 302 279 260 248 240 237 237 236 234
182 158 135 76 46 48 45 56 63 67 87 80 46 58 71 78 80 67 49 51 51 51 43 28 32 29 20 34 32 15 19 15 5 15 22 23 18 1 352 352 347 344 349 359 18 22 9 7 5 357 356 359 356 356 2 352 339 340 333 327 336 346 341 334 332 325 319 318 318 319 323 325 323 321 323 327 322 301 279 263 246 237 236 236 233
141 124 119 98 74 59 49 53 56 58 71 75 61 54 48 53 74 75 58 52 48 46 43 29 28 31 24 25 27 24 26 8 1 13 22 30 29 3 351 354 354 353 349 344 350 355 354 359 355 348 353 356 351 350 346 334 329 333 332 332 339 348 347 342 344 341 329 319 314 309 310 314 318 319 318 322 327 320 301 280 256 239 233 234 232
113 124 130 127 121 115 82 59 56 62 71 72 62 52 35 30 46 62 60 58 54 47 44 30 23 29 27 24 22 27 36 16 4 8 4 25 54 10 344 6 11 359 347 332 333 342 342 346 345 338 346 348 338 339 340 330 328 332 331 336 346 353 348 341 343 350 345 334 321 310 305 303 308 316 317 318 323 325 321 306 275 245 235 232 230
136 128 107 97 92 91 63 46 44 50 57 68 72 70 58 35 33 48 55 57 52 47 47 34 22 26 28 25 18 22 43 26 12 10 346 8 58 8 337 6 3 347 349 333 330 335 333 335 338 337 344 343 333 332 332 327 332 339 337 344 356 353 343 342 348 349 343 336 327 317 308 301 300 307 313 317 319 321 324 323 304 260 239 234 230
146 111 89 63 49 50 50 44 46 49 42 50 81 101 96 72 48 45 47 51 46 37 41 35 21 22 24 24 16 15 42 32 14 25 349 348 47 12 339 347 338 338 4 350 336 331 333 336 336 339 340 335 335 334 332 336 342 340 340 351 355 348 344 350 351 343 339 340 339 330 318 306 300 301 308 315 318 319 322 325 321 287 247 236 231
121 116 118 86 60 69 80 80 80 82 56 37 53 77 66 51 46 35 31 41 43 28 31 32 20 19 21 23 15 11 38 33 8 25 1 343 25 17 346 357 8 343 328 341 341 333 339 339 334 340 336 331 341 343 338 346 341 333 345 356 348 345 351 347 340 339 342 347 352 348 335 314 303 303 306 312 318 319 320 322 322 311 268 241 233
129 147 158 137 125 129 119 105 87 94 94 64 52 57 39 29 38 25 11 22 31 21 25 23 9 12 15 19 14 6 26 30 4 12 4 346 4 7 353 12 16 337 326 340 343 336 340 339 337 344 334 334 350 348 338 341 336 338 355 355 341 349 354 341 331 334 338 341 346 347 343 327 310 308 310 314 319 320 321 321 319 320 300 256 237
122 110 121 119 119 138 137 108 83 82 92 80 65 61 52 46 49 31 7 14 19 7 15 16 8 10 10 12 14 3 11 33 10 359 7 358 353 351 352 3 356 344 349 350 340 336 339 339 346 348 337 340 352 347 343 346 343 348 355 346 339 350 352 343 330 319 326 338 342 341 340 334 320 314 316 318 322 324 324 322 320 320 315 283 244
112 110 134 153 146 147 145 112 89 83 77 45 32 34 38 47 51 36 23 23 13 354 3 17 10 8 3 358 3 360 6 39 21 358 9 2 345 344 347 346 346 350 355 344 338 343 343 340 344 343 340 345 347 341 340 338 334 341 347 345 340 339 347 347 337 324 326 339 344 344 338 333 326 321 323 326 329 330 327 323 322 321 320 308 262
146 158 169 176 145 109 94 86 77 74 85 78 55 36 20 32 43 33 20 21 17 5 11 19 5 5 3 342 340 351 359 29 28 357 13 4 345 347 346 342 344 343 342 339 338 342 340 336 342 345 344 343 339 336 332 327 326 332 339 342 339 338 345 346 343 345 346 340 343 347 339 333 328 323 326 331 332 333 329 324 324 325 325 321 290
167 146 127 125 112 100 93 93 75 53 71 94 89 77 34 20 31 28 17 21 23 8 10 19 6 10 12 333 325 345 353 6 8 320 24 21 358 345 338 337 335 328 334 336 332 340 343 337 340 344 343 339 339 339 332 329 334 337 334 332 336 343 347 345 345 348 348 345 347 345 339 337 334 325 323 326 326 330 332 329 330 331 329 326 306
151 121 113 105 98 104 118 127 87 53 62 70 79 95 68 30 26 32 27 25 21 4 7 19 2 2 8 331 323 344 354 357 349 303 272 41 13 355 338 318 308 308 330 336 335 349 345 333 336 341 340 341 343 341 336 337 342 340 332 328 332 342 346 343 342 344 350 349 343 335 331 338 343 335 327 324 322 324 328 335 339 336 330 325 311
140 131 119 104 107 122 146 150 124 183 186 100 86 99 34 14 340 315 45 45 22 8 4 9 354 348 353 334 327 344 357 357 350 330 312 264 211 347 330 314 307 306 313 330 352 357 344 330 335 341 339 341 342 336 333 340 342 335 330 330 334 342 345 338 335 346 354 342 332 327 325 338 349 344 335 330 330 329 327 336 345 339 332 325 313
146 158 133 118 139 153 155 157 178 259 222 137 108 102 355 355 314 298 215 105 22 8 3 7 359 344 334 325 327 339 352 355 357 360 349 319 274 314 336 355 3 352 338 343 2 354 345 339 341 341 338 339 339 333 333 343 343 333 332 335 336 340 339 331 332 351 353 338 335 338 339 352 354 344 336 333 333 332 329 335 345 339 331 328 319
149 164 167 167 169 164 171 202 228 253 166 147 184 235 290 311 309 308 281 152 14 23 18 6 3 350 329 325 332 338 345 352 360 3 4 13 11 1 0 8 11 11 6 8 9 355 341 337 338 338 339 339 338 337 340 344 337 328 330 337 337 337 336 332 336 357 356 345 345 350 357 7 356 340 337 338 333 331 331 332 340 341 335 332 329
172 187 191 190 181 179 198 252 274 259 219 216 230 253 303 314 310 313 321 313 113 71 13 350 357 351 328 326 332 333 337 344 350 355 5 24 19 6 357 350 349 354 354 354 360 2 356 346 336 332 335 337 336 338 340 337 330 329 332 336 336 337 341 342 345 3 7 353 347 351 359 8 359 342 341 347 341 336 336 332 335 345 344 338 336
187 209 196 184 193 203 214 248 301 274 208 214 243 283 308 311 303 310 331 338 145 41 7 341 340 330 307 316 328 325 328 335 338 345 358 13 11 354 342 338 337 337 335 336 345 355 2 2 353 343 338 334 333 338 339 336 336 337 334 333 334 336 342 344 341 349 5 359 351 350 350 356 358 345 343 348 344 337 337 336 336 346 347 342 339
186 203 192 193 215 215 215 231 242 305 249 255 285 301 300 298 296 307 336 345 225 156 15 327 327 315 297 310 325 309 309 316 325 337 349 358 3 345 315 319 326 327 326 327 336 345 354 360 357 352 347 341 336 336 335 336 342 342 337 336 342 342 343 341 335 337 351 358 352 344 339 343 354 351 344 342 340 339 338 336 337 341 344 344 341
191 205 202 214 236 225 225 234 211 210 282 291 295 298 293 294 301 310 329 340 280 212 233 305 302 280 290 309 336 294 297 302 320 340 347 344 348 348 329 327 335 329 321 322 335 341 338 342 345 344 341 339 332 326 328 337 347 348 345 345 355 354 349 345 339 336 344 352 345 331 330 338 354 2 352 340 338 341 341 338 337 337 339 344 345
200 212 210 219 246 249 249 244 203 206 268 281 281 288 294 299 308 315 320 329 297 259 269 298 280 270 289 306 291 283 293 293 312 336 341 336 340 348 351 11 36 359 331 326 340 339 312 323 333 330 322 318 314 315 324 337 347 350 348 347 355 356 352 349 345 337 338 343 331 317 324 338 352 357 353 345 337 336 340 344 344 338 334 339 347
204 213 220 222 233 251 263 254 221 226 259 269 275 282 290 299 306 311 316 323 305 281 256 250 279 283 294 291 249 256 276 285 306 324 328 327 332 341 343 348 15 2 330 319 322 306 297 315 326 323 315 314 316 319 328 338 342 346 348 345 347 351 348 345 341 334 334 339 328 316 321 334 345 345 344 346 337 331 338 348 346 342 338 336 344
206 224 238 227 221 244 274 271 249 238 245 259 272 282 292 301 305 309 311 316 306 291 264 202 276 286 302 300 277 281 277 271 291 307 313 318 326 333 332 332 341 344 316 310 306 294 298 312 318 315 316 329 334 330 331 337 338 341 344 344 345 348 344 338 335 332 334 335 325 317 322 331 338 339 337 340 337 332 338 342 341 344 342 336 340
209 225 236 234 226 247 271 266 260 262 263 275 286 292 294 295 300 307 305 294 292 288 277 239 264 279 298 295 284 294 294 273 284 302 311 316 321 325 326 329 334 334 325 323 317 307 305 310 314 315 319 332 339 333 328 332 338 340 341 341 340 339 337 333 329 328 331 329 319 318 328 333 334 336 337 337 337 337 337 339 343 344 341 336 338
214 216 226 242 241 247 260 260 258 259 257 269 280 284 289 290 294 303 299 285 283 282 275 258 263 278 291 284 284 296 301 298 306 315 317 316 317 319 321 324 326 325 327 321 309 302 302 306 312 317 324 333 337 331 326 329 336 335 334 336 333 326 324 323 321 322 325 324 320 323 331 332 329 333 340 338 336 335 334 339 343 342 341 339 336
219 215 221 235 241 252 268 270 262 256 255 262 273 280 287 287 288 296 293 283 275 271 271 264 257 269 279 281 292 306 305 297 303 313 315 313 313 315 317 317 317 320 322 309 295 294 298 306 311 312 323 339 339 330 325 321 326 333 330 328 322 312 310 313 314 317 318 316 317 325 331 331 327 331 340 339 335 331 329 337 342 339 340 338 332